Location: Stony Plain
(53.5279°N, 114.0019°W)
Time: 12:20:34
(UTC-06:00)

Envisat - Visible Passes

Search period start: 23 March 2019 00:00
Search period end: 02 April 2019 00:00
Orbit: 764 x 766 km, 98.2° (Epoch: 22 March)

Date Brightness Start Highest point End Pass type
(mag) Time Alt. Az. Time Alt. Az. Time Alt. Az.
23 Mar 3.9 20:25:41 10° S 20:30:39 54° W 20:35:39 10° NNW visible
24 Mar 5.8 21:30:01 10° SW 21:33:30 18° W 21:37:00 10° NW visible
25 Mar 4.9 20:51:44 10° SSW 20:56:20 34° W 21:00:59 10° NNW visible
26 Mar 6.2 21:57:49 10° W 21:59:26 11° W 22:01:04 10° WNW visible
27 Mar 5.6 21:18:13 10° SW 21:22:08 22° W 21:26:05 10° NW visible
28 Mar 4.5 20:40:15 10° SSW 20:45:03 41° W 20:49:52 10° NNW visible
29 Mar 6.0 21:45:24 10° WSW 21:48:02 14° W 21:50:41 10° NW visible
30 Mar 5.3 21:06:33 10° SSW 21:10:48 26° W 21:15:05 10° NW visible
01 Apr 5.8 21:33:22 10° SW 21:36:39 17° W 21:39:57 10° NW visible
